Find Starlink 3176

NORAD ID: 51106 Int'l Des: 2022-005 Owner: SPXS Country: US Constellation: starlink operational
LEOCIRCULAR

当前视图

正在加载3D地球...

About Starlink 3176

Starlink 3176 (NORAD 51106) is a starlink constellation satellite (v1.5) launched Jan 19, 2022 by SPXS of US. It operates in LEO, CIRCULAR orbit with a mass of 297.00 kg.

即将过境

Passes for default location (London). Set your location on the main map for personalized predictions.

高度历史

Loading altitude history...

两行轨道根数

1 51106U 22005C 26264.30855423 .00000948 00000-0 38075-4 0 9990
2 51106 53.1599 121.9793 0001183 88.2314 271.8825 15.35397899258522
Epoch: Sep 21, 2026 • Age: 19 hours

当前状态

高度 466.8 km
远地点 / 近地点 N/A
速度 7.63 km/s
星下点 -23.29°S, 68.32°E
发射日期 Jan 19, 2022
运行时间 4.6 years
类型 internet

技术详情

分类 Payload
质量 297.00 kg
干质量 275.00 kg
长度 0.20 m
跨度 9.00 m
形状 ? Box + pan
制造商 SPXS
平台类型 Starlink
阶段状态 In Orbit
所有者/国家 SPXS/US

Most Searched